Martinsburg, WV

11:01 PM EDT on May 25, 2017 (GMT -0400)
Eastern W Va Regional-Shepherd

Weather History for KMRB - May, 2014

Change the Weather History Date:

Wednesday, May 28, 2014

  Actual Average Record
Temperature  
Mean Temperature 74 °F 65 °F  
Max Temperature 86 °F 76 °F 96 °F (1941)
Min Temperature 62 °F 53 °F 36 °F (1994)
Degree Days  
Heating Degree Days 0 3  
Month to date heating degree days 90 161  
Since 1 July heating degree days 5380 5218  
Cooling Degree Days 9 3  
Month to date cooling degree days 72 43  
Year to date cooling degree days 79 52  
Growing Degree Days 25 (Base 50)    
Moisture  
Dew Point 63 °F    
Average Humidity 68    
Maximum Humidity 87    
Minimum Humidity 48    
Precipitation  
Precipitation 0.05 in 0.13 in 1.50 in (1960)
Month to date precipitation 5.13 3.70  
Year to date precipitation 14.71 15.34  
Sea Level Pressure  
Sea Level Pressure 29.94 in    
Wind  
Wind Speed 6 mph (WNW)    
Max Wind Speed 18 mph    
Max Gust Speed 24 mph    
Visibility 8 miles    
Events Rain    
T = Trace of Precipitation, MM = Missing Value Source: NWS Daily Summary

Daily Weather History Graph

Daily Weather History Graph

Search for Another Location

Airport or City:

Trip Planner

Search our weather history database for the weather conditions in past years. The results will help you decide how hot, cold, wet, or windy it might be!

Date:

Astronomy

May. 28, 2014 Rise Set
Actual Time 5:48 AM EDT 8:29 PM EDT
Civil Twilight 5:17 AM EDT 9:01 PM EDT
Nautical Twilight 4:38 AM EDT 9:40 PM EDT
Astronomical Twilight 3:53 AM EDT 10:25 PM EDT
Moon 5:53 AM EDT (5/28) 8:27 PM EDT (5/28)
Length of Visible Light 15h 44m
Length of Day
14h 41m
Waning Crescent, 0% of the Moon is Illuminated
May 28
Waning Crescent
May 28
New
Jun 5
First Quarter
Jun 13
Full
Jun 19
Last Quarter

Hourly Weather History & Observations

Time (EDT) Temp. Heat Index Dew Point Humidity Pressure Visibility Wind Dir Wind Speed Gust Speed Precip Events Conditions
12:53 AM 71.1 °F - 62.1 °F 73% 29.91 in 10.0 mi West 6.9 mph - 0.01 in Rain Light Rain
1:53 AM 70.0 °F - 61.0 °F 73% 29.90 in 10.0 mi Calm Calm - 0.00 in   Mostly Cloudy
2:53 AM 71.1 °F - 61.0 °F 70% 29.89 in 10.0 mi WSW 6.9 mph - 0.01 in Rain Light Rain
3:53 AM 69.1 °F - 61.0 °F 75% 29.87 in 10.0 mi WSW 9.2 mph - 0.00 in   Overcast
4:53 AM 69.1 °F - 62.1 °F 78% 29.88 in 10.0 mi West 8.1 mph - N/A   Partly Cloudy
5:53 AM 70.0 °F - 61.0 °F 73% 29.89 in 10.0 mi Calm Calm - N/A   Mostly Cloudy
6:53 AM 71.1 °F - 61.0 °F 70% 29.90 in 9.0 mi SW 5.8 mph - N/A   Overcast
7:53 AM 72.0 °F - 62.1 °F 71% 29.92 in 7.0 mi Calm Calm - N/A   Mostly Cloudy
9:53 AM 75.0 °F - 64.9 °F 71% 29.93 in 6.0 mi SSW 3.5 mph - 0.00 in   Haze
10:53 AM 79.0 °F - 64.0 °F 60% 29.94 in 9.0 mi NNW 8.1 mph - N/A   Partly Cloudy
11:53 AM 79.0 °F - 63.0 °F 58% 29.94 in 10.0 mi WNW 10.4 mph - N/A   Clear
12:53 PM 82.0 °F 83.4 °F 64.0 °F 54% 29.94 in 10.0 mi NW 10.4 mph - N/A   Clear
2:53 PM 84.0 °F 84.9 °F 63.0 °F 49% 29.91 in 10.0 mi NNE 8.1 mph 17.3 mph N/A   Mostly Cloudy
3:53 PM 82.9 °F 84.6 °F 64.9 °F 54% 29.92 in 10.0 mi North 6.9 mph - N/A   Partly Cloudy
4:53 PM 82.9 °F 84.0 °F 63.0 °F 51% 29.91 in 10.0 mi North 8.1 mph - N/A   Clear
7:53 PM 78.1 °F - 61.0 °F 56% 29.95 in 10.0 mi WNW 4.6 mph - N/A   Mostly Cloudy
8:53 PM 72.0 °F - 63.0 °F 73% 29.97 in 7.0 mi West 8.1 mph - 0.02 in Rain Light Rain
9:53 PM 69.1 °F - 66.0 °F 90% 29.99 in 6.0 mi Calm Calm - 0.02 in   Overcast
10:53 PM 68.0 °F - 64.0 °F 87% 30.01 in 8.0 mi ENE 5.8 mph - N/A   Scattered Clouds
11:32 PM 68.0 °F - 64.0 °F 87% 30.04 in 4.0 mi ESE 10.4 mph 20.7 mph N/A   Overcast
11:51 PM 66.2 °F - 62.6 °F 88% 30.05 in 3.0 mi ESE 9.2 mph - N/A   Overcast
11:53 PM 66.0 °F - 62.1 °F 87% 30.04 in 4.0 mi ESE 9.2 mph - N/A   Overcast